Location: *
(40.9167°N, 9.5000°E)
Time: 09:00:24
(UTC+00:00)

USA 234 - Pass Details

Date: 09 April 2020
Orbit: 1102 x 1106 km, 123.0° (Epoch: 14 May)

Event Time Altitude Azimuth Distance (km) Brightness Sun altitude
Rises 21:35:17 0° 45° (NE) 3,924 6.3 -35.1°
Reaches altitude 10° 21:37:51 10° 40° (NE) 2,965 5.7 -35.4°
Maximum altitude 21:44:03 48° 329° (NNW) 1,417 4.0 -36.0°
Drops below altitude 10° 21:50:15 10° 257° (WSW) 2,958 5.6 -36.6°
Sets 21:52:48 0° 252° (WSW) 3,915 6.3 -36.8°
